Tracking 35237 objects as of 6-Sep-2026
HD Live streaming from Space Station
objects crossing your sky now

TANSUO 1

Track TANSUO 1 now!
10-day predictions
TANSUO 1 is classified as:


NORAD ID: 28220
Int'l Code: 2004-012A
Launch date: April 18, 2004
Source: People's Republic of China (PRC)
Launch site: Xichang Space Center, China (XSC)
Your satellite tracking list
Your tracking list is empty




NASA's NSSDC Master Catalog

Two Line Element Set (TLE):
1 28220U 04012A   26249.22674889  .00007848  00000-0  22872-3 0  9991
2 28220  97.8640 332.6576 0006631  93.7742 266.4259 15.35667481223524
Source of the keplerian elements: AFSPC